{"data":{"norad_id":45564,"epoch":"2026-09-19T13:44:05.939808Z","epoch_age_seconds":94699,"freshness":"FRESH","line1":"1 45564U 20025AK  26262.57229097  .00061352  00000+0  40362-3 0  9996","line2":"2 45564  53.0383 206.8471 0003284  65.0553 295.0806 15.75110227355843","mean_motion":15.75110227,"eccentricity":0.0003284,"inclination_deg":53.0383,"raan_deg":206.8471,"arg_perigee_deg":65.0553,"mean_anomaly_deg":295.0806,"bstar":0.00040362,"rev_number":35584,"period_min":91.422173211501,"perigee_km":342.10988189927,"apogee_km":346.52519003849,"semimajor_km":6722.4545359689,"source":"CELESTRAK","updated_at":"2026-09-20T09:00:38.447060Z"}}